Regional Weather Roundup
Issued by NWS

Home | Current Version | Previous Version | Text Only | Print | Product List | Glossary On
Versions: 1 2 3 4 5 6 7 8 9 10 11 12 13 14 15 16 17 18 19 20 21 22 23 24 25 26 27 28 29 30 31 32 33 34 35 36 37 38 39 40 41 42 43 44 45 46 47 48 49 50
000
ASHW40 PHFO 250510
RWRHI

WEATHER ROUNDUP FOR HAWAII
NATIONAL WEATHER SERVICE HONOLULU HI
700 PM HST THU JUL 24 2014

THIS IS AN AUTOMATED REPORT THAT HAS NOT BEEN QUALITY CONTROLLED.

NOTE..."FAIR" INDICATES FEW OR NO CLOUDS BELOW 12,000 FEET WITH NO
SIGNIFICANT WEATHER AND/OR OBSTRUCTIONS TO VISIBILITY.

* - THESE SITES REPORT LIMITED FIELDS

HIZ001>004-250600-
KAUAI-NIIHAU-

CITY           SKY/WX    TMP DP  RH WIND       PRES   REMARKS
LIHUE APT      PTCLDY    78  70  76 NE15      30.04S
PORT ALLEN*      N/A     81 N/A N/A E14G21      N/A
POIPU*           N/A     79 N/A N/A NE8G17      N/A
PRINCEVILLE*   NOT AVBL
KOKOLE POINT*  NOT AVBL
MOLOAA DAIRY*  NOT AVBL
WAIMEA HTS*    NOT AVBL
PUU OPAE*      NOT AVBL
PUU LUA*       NOT AVBL
MAKAHA RIDGE*  NOT AVBL
$$

HIZ005>011-250600-
OAHU-

CITY           SKY/WX    TMP DP  RH WIND       PRES   REMARKS
HONOLULU       PTCLDY    81  65  58 NE8       30.00R
KALAELOA       CLEAR     81  65  58 E8        30.01R
KANEOHE MCB    PTCLDY    81  65  58 E8        30.03R
WHEELER FIELD  MOCLDY    77  66  68 N5        30.03R
BELLOWS*       NOT AVBL
KAHUKU*        NOT AVBL
WHEELER*       NOT AVBL
WAIANAE HARBOR NOT AVBL
DILLINGHAM*      N/A     81  68  65 NE8G15      N/A
KAHUKU TRN*      N/A     75  70  83 E9G20       N/A
KAWAILOA*      NOT AVBL
KII*             N/A     79  72  78 CALM        N/A
MAKUA RANGE*     N/A     81  66  61 E12G21      N/A
OAHU FOREST NW NOT AVBL
SCHOFIELD BRK*   N/A     73  64  73 MISG        N/A
SCHOFIELD S*   NOT AVBL
WAIANAE VLY*   NOT AVBL
KUAOKALA*      NOT AVBL
HONOULIUULI*   NOT AVBL
MOKUOLOE IS*     N/A    N/A N/A N/A MISG        N/A
PALEHUA*       NOT AVBL
WAIAWA PHB*    NOT AVBL
$$

HIZ012>013-250600-
MOLOKAI-

CITY           SKY/WX    TMP DP  RH WIND       PRES   REMARKS
MOLOKAI AIRPT  CLEAR     76  71  85 NE15G23   30.02R
KALAUPAPA      NOT AVBL
MAKAPULAPAI*   NOT AVBL
MOLOKAI 1*     NOT AVBL
PUU ALII*      NOT AVBL
$$

HIZ016-250600-
KAHOOLAWE-

CITY           SKY/WX    TMP DP  RH WIND       PRES   REMARKS
KAHOOLAWE*     NOT AVBL
HAKIOAWA*      NOT AVBL
HONOKANAIA*      N/A     79  66  64 NE12G26   30.01
KANELOA*         N/A     75  66  73 E16G30    30.11R
KEALIALALO*    NOT AVBL
LUA MAKIKA*    NOT AVBL
$$

HIZ014>015-250600-
LANAI-

CITY           SKY/WX    TMP DP  RH WIND       PRES   REMARKS
LANAI CITY     FAIR      74  65  73 NE15      30.06R
LANAI 1*       NOT AVBL
$$

HIZ017>028-250600-
MAUI-

CITY           SKY/WX    TMP DP  RH WIND       PRES   REMARKS
KAHULUI        PTCLDY    79  65  62 NE18G26   30.00R
KAPALUA-W MAUI NOT AVBL
HANA AIRPORT   PTCLDY    77  66  69 E2        30.06S
HANA*          NOT AVBL
HALEAKALA SUMM   N/A     50   9  18 E20         N/A
MAALAEA BAY*   NOT AVBL
HALEAKALA*     NOT AVBL
KAUPO GAP*     NOT AVBL
KULA 1*          N/A     60  56  88 NW2         N/A
$$

HIZ023>026-250600-
BIG ISLAND OF HAWAII COAST AND LOWER SLOPES-

CITY           SKY/WX    TMP DP  RH WIND       PRES   REMARKS
KAILUA KONA    CLOUDY    83  71  67 S12       29.95R
HILO           PTCLDY    78  69  73 N5        30.02R
HONOKAA*       NOT AVBL
KAWAIHAE MWT*  NOT AVBL
KAWAIHAE*        N/A     84 N/A N/A SE6G14      N/A
SOUTH POINT*   NOT AVBL
UPOLU AIRPORT* NOT AVBL
KAMUELA*       MOCLDY    66  63  88 NE15      30.11S
HAKALAU*         N/A     51  40  67 W3          N/A
KALOKO-HONOKO* NOT AVBL
PALI 2*          N/A     66  59  77 N18G28      N/A
KEALAKOMO*       N/A     82  68  61 NE17G25     N/A
KAUPULEHU*     NOT AVBL
KAPAPALA*        N/A     71  66  84 SW5G10      N/A
LOWER KAHUKU*  NOT AVBL
PUHE CS*       NOT AVBL
PUHO CS*       NOT AVBL
PTA KEAMUKU*     N/A     64  57  77 NE16G25     N/A
WAIKOLOA*      NOT AVBL
$$

HIZ027>028-250600-
BIG ISLAND OF HAWAII INTERIOR AND SUMMMITS-

CITY           SKY/WX    TMP DP  RH WIND       PRES   REMARKS
BRADSHAW FIELD PTCLDY    60  57  88 W7        30.34R
MK VISITOR CEN NOT AVBL
MAUNA KEA*       N/A     39   0  19 E29         N/A  WCI  28
MAUNA LOA*     NOT AVBL
MAUNA LOA 1*   NOT AVBL
PTA KIPUKA*      N/A     63  59  88 N3G12       N/A
PTA RANGE 17*    N/A     61  57  88 W5G13       N/A
PTA WEST*        N/A     64  59  82 NW6         N/A
NENE CABIN*    NOT AVBL
AHUMOA*        NOT AVBL
PTA PORTABLE*  NOT AVBL
PUU MALI*      NOT AVBL
$$

HIC003-250600-
NORTHWEST ISLANDS-

CITY           SKY/WX    TMP DP  RH WIND       PRES   REMARKS
MIDWAY ISLAND  SUNNY     84  72  65 E8        30.11F
MIDWAY NOS*    NOT AVBL
FRENCH FRIGATE NOT AVBL
$$

PHZ110>124-180-250600-
BUOY REPORTS

STATION/POSITION TIME  TEMP    WIND        PRES    WAVE   SWELL
                       AIR SEA DIR/SP/G            HT/PER HT/DIR
                 (UTC) (F)     (DEG/KT/KT) (MB)    (FT/S) (FT/D)
BUOY 51001       NOT AVBL
BUOY 51101       NOT AVBL
BUOY 51100       0500   77 78   80/ 12/ 14 1017.4R
BUOY 51003       0400   81 81   50/ 16/ 19 1014.6F   8/ 8   5
BUOY 51004       0446   77 80   50/ 19/ 23 1014.1R   7/ 8   5/ 80
BARBERS PT BUOY  NOT AVBL
WAIMEA BAY BUOY  0500      79                N/A     4/ 8
KAILUA BAY BUOY  0500      80                N/A     6/ 8
LANAI BUOY       0500      81                N/A     2/17   2/190
BARBERS PT 2     0500      81                N/A     4/ 9   2/170
PAUWELA MAUI     0500      79                N/A     5/ 8
HILO             NOT AVBL
KANEOHE BAY BUOY 0500      79                N/A     5/ 8
HANALEI KAUAI    NOT AVBL
KAHULUI HARBOR   0500   79 81   30/ 14/ 18 1016.0R
HONOLULU HARBOR  0500   80      90/  5/ 11 1016.2R
KILO NALU        NOT AVBL
HILO HARBOR      0500   78      30/  6/  8 1016.0R
MOKUOLOE         0500      82              1017.0R
NAWILIWILI       0500      82                N/A
WHOTS BUOY       NOT AVBL
BUOY 51028       NOT AVBL
$$

......................KEY........................................
  SKY/WX - SKY CONDITIONS/PRESENT WEATHER
  TMP    - TEMPERATURE IN FAHRENHEIT
  DWPT   - DEWPOINT IN FAHRENHEIT
  RH     - RELATIVE HUMIDITY IN PERCENT
  WIND   - DIRECTION AND SPEED /MPH FOR ISLANDS...KTS FOR BUOYS/
  PRES   - MEAN SEA LEVEL PRESSURE IN INCHES OF HG
  VSB    - VISIBILITY IN MILES
  HX     - HEAT INDEX
  WCI    - WIND CHILL INDEX
  VRB    - VARIABLE WIND DIRECTION
  N/A    - NOT AVAILABLE


USA.gov is the U.S. government's official web portal to all federal, state and local government web resources and services.